| time (UTC) | temp F | wind direction | speed knots | gust knots | rain 1hr in | rain 24hr in | rain mn in | humidity % | barometer mb |
| 20260906061905 | 80 | 92 | 0.0 | 0.0 | 0.00 | 1.17 | 0.00 | 93 | 1011.8 |
| 20260906060904 | 80 | 92 | 0.0 | 0.0 | 0.00 | 1.17 | 0.00 | 92 | 1011.7 |
| 20260906055905 | 80 | 92 | 0.0 | 0.0 | 0.00 | 1.17 | 0.00 | 92 | 1011.7 |
| 20260906055405 | 80 | 92 | 0.0 | 0.0 | 0.00 | 1.38 | 0.00 | 92 | 1011.6 |
| 20260906053403 | 80 | 92 | 0.0 | 0.0 | 0.00 | 2.42 | 0.00 | 92 | 1011.7 |
| 20260906052904 | 80 | 92 | 0.0 | 0.0 | 0.00 | 2.78 | 0.00 | 92 | 1011.7 |
| 20260906052404 | 80 | 92 | 0.0 | 0.0 | 0.00 | 3.02 | 0.00 | 92 | 1011.7 |
| 20260906051904 | 80 | 92 | 0.0 | 0.0 | 0.00 | 3.27 | 0.00 | 92 | 1011.7 |
| 20260906051405 | 80 | 92 | 0.0 | 0.0 | 0.00 | 3.53 | 0.00 | 92 | 1011.6 |
| 20260906050905 | 80 | 92 | 0.0 | 0.0 | 0.00 | 3.84 | 0.00 | 92 | 1011.7 |
| 20260906050404 | 80 | 92 | 0.0 | 0.0 | 0.00 | 4.05 | 0.00 | 92 | 1011.7 |
| 20260906045904 | 80 | 92 | 0.0 | 0.0 | 0.00 | 4.31 | 0.63 | 92 | 1011.8 |
| 20260906045404 | 80 | 92 | 0.0 | 0.0 | 0.00 | 4.62 | 0.63 | 92 | 1011.7 |
| 20260906044405 | 80 | 92 | 0.0 | 0.0 | 0.00 | 5.21 | 0.63 | 92 | 1011.6 |
| 20260906043405 | 80 | 92 | 0.0 | 0.0 | 0.00 | 5.85 | 0.63 | 91 | 1011.6 |
| 20260906042904 | 80 | 92 | 0.0 | 0.0 | 0.00 | 6.14 | 0.63 | 91 | 1011.8 |
| 20260906042404 | 81 | 92 | 0.0 | 0.0 | 0.00 | 6.32 | 0.63 | 91 | 1011.8 |
| 20260906041904 | 81 | 92 | 0.0 | 0.0 | 0.00 | 6.57 | 0.63 | 91 | 1011.8 |
| 20260906041404 | 81 | 92 | 0.0 | 0.0 | 0.00 | 6.80 | 0.63 | 91 | 1011.8 |
| 20260906040405 | 81 | 92 | 0.0 | 0.0 | 0.63 | 7.38 | 0.00 | 91 | 1011.8 |
| 20260906035904 | 81 | 92 | 0.0 | 0.0 | 0.00 | 7.68 | 0.63 | 91 | 1011.9 |
| 20260906035405 | 81 | 92 | 0.0 | 0.0 | 0.00 | 7.99 | 0.63 | 91 | 1011.9 |
| 20260906034904 | 81 | 92 | 0.0 | 0.0 | 0.63 | 8.31 | 0.63 | 91 | 1011.8 |
| 20260906034404 | 81 | 92 | 0.0 | 0.0 | 0.00 | 8.62 | 0.63 | 91 | 1011.9 |
| 20260906033904 | 81 | 92 | 0.0 | 0.0 | 0.00 | 8.86 | 0.63 | 90 | 1012.0 |
| 20260906033404 | 81 | 92 | 0.0 | 0.0 | 0.00 | 9.15 | 0.63 | 90 | 1012.0 |
| 20260906032904 | 81 | 92 | 0.0 | 0.0 | 0.00 | 9.37 | 0.63 | 90 | 1012.0 |
| 20260906032404 | 81 | 92 | 0.0 | 0.0 | 0.00 | 9.72 | 0.63 | 90 | 1011.9 |
| 20260906031403 | 82 | 92 | 0.0 | 0.0 | 0.00 | 1.02 | 0.63 | 90 | 1011.8 |
| 20260906030904 | 82 | 92 | 0.0 | 0.0 | 0.00 | 1.04 | 0.63 | 90 | 1011.8 |
| 20260906030404 | 82 | 92 | 0.0 | 1.7 | 0.00 | 1.06 | 0.63 | 90 | 1011.7 |
| 20260906025904 | 82 | 92 | 0.0 | 1.7 | 0.00 | 1.09 | 0.63 | 90 | 1011.8 |
| 20260906025404 | 82 | 92 | 0.9 | 1.7 | 0.00 | 1.11 | 0.63 | 90 | 1011.8 |
| 20260906024405 | 82 | 92 | 0.0 | 1.7 | 0.00 | 1.17 | 0.63 | 90 | 1011.7 |
| 20260906023904 | 82 | 92 | 0.0 | 0.9 | 0.00 | 1.20 | 0.63 | 90 | 1011.5 |
| 20260906022904 | 82 | 92 | 0.0 | 1.7 | 0.00 | 1.26 | 0.63 | 89 | 1011.5 |
| 20260906021904 | 82 | 90 | 0.0 | 0.0 | 0.00 | 1.31 | 0.63 | 89 | 1011.3 |
| 20260906021404 | 82 | 90 | 0.0 | 0.0 | 0.00 | 1.34 | 0.63 | 88 | 1011.2 |
| 20260906020905 | 82 | 90 | 0.0 | 0.0 | 0.00 | 1.36 | 0.63 | 88 | 1011.2 |
| 20260906020404 | 83 | 90 | 0.0 | 0.0 | 0.00 | 1.39 | 0.63 | 88 | 1011.2 |
| 20260906015404 | 83 | 90 | 0.0 | 0.0 | 0.00 | 1.45 | 0.63 | 88 | 1011.0 |
| 20260906013904 | 83 | 90 | 0.0 | 0.0 | 0.00 | 1.53 | 0.63 | 87 | 1011.0 |
| 20260906013403 | 83 | 90 | 0.0 | 0.0 | 0.00 | 1.55 | 0.63 | 87 | 1010.9 |
| 20260906012903 | 83 | 90 | 0.0 | 1.7 | 0.00 | 1.58 | 0.63 | 87 | 1010.8 |
| 20260906012404 | 83 | 90 | 0.0 | 1.7 | 0.00 | 1.60 | 0.63 | 86 | 1010.8 |
| 20260906011904 | 83 | 89 | 0.9 | 1.7 | 0.00 | 1.63 | 0.63 | 86 | 1010.8 |
| 20260906011405 | 84 | 86 | 0.9 | 1.7 | 0.00 | 1.66 | 0.63 | 86 | 1010.9 |
| 20260906010904 | 84 | 83 | 0.0 | 2.6 | 0.00 | 1.68 | 0.63 | 85 | 1010.9 |
| 20260906010404 | 84 | 74 | 0.9 | 2.6 | 0.00 | 1.70 | 0.63 | 85 | 1010.8 |
| 20260906005904 | 84 | 102 | 0.9 | 2.6 | 0.00 | 1.73 | 0.63 | 84 | 1010.8 |
| 20260906005403 | 84 | 62 | 0.9 | 2.6 | 0.00 | 1.76 | 0.63 | 83 | 1010.9 |
| 20260906004405 | 85 | 119 | 0.9 | 1.7 | 0.00 | 1.81 | 0.63 | 82 | 1010.9 |
| 20260906003903 | 85 | 119 | 0.0 | 5.2 | 0.00 | 1.83 | 0.63 | 82 | 1010.9 |
| 20260906002903 | 85 | 144 | 1.7 | 4.3 | 0.00 | 1.88 | 0.63 | 82 | 1010.9 |
| 20260906001904 | 85 | 108 | 0.9 | 2.6 | 0.00 | 1.94 | 0.63 | 82 | 1011.0 |
| 20260906001404 | 85 | 134 | 0.9 | 2.6 | 0.00 | 1.97 | 0.63 | 82 | 1011.2 |
| 20260906000904 | 85 | 136 | 1.7 | 7.0 | 0.63 | 2.00 | 0.63 | 82 | 1011.3 |
| 20260906000404 | 85 | 84 | 1.7 | 7.0 | 0.63 | 2.02 | 0.63 | 82 | 1011.5 |
| 20260905235904 | 86 | 118 | 2.6 | 7.0 | 0.00 | 2.05 | 0.63 | 82 | 1011.6 |
| 20260905235404 | 86 | 69 | 1.7 | 6.1 | 0.00 | 2.08 | 0.63 | 81 | 1011.5 |
| 20260905234904 | 86 | 124 | 1.7 | 6.1 | 0.00 | 2.11 | 0.63 | 81 | 1011.5 |
| 20260905234404 | 86 | 105 | 2.6 | 6.1 | 0.00 | 2.14 | 0.63 | 81 | 1011.4 |
| 20260905233904 | 86 | 100 | 0.9 | 6.1 | 0.00 | 2.16 | 0.63 | 80 | 1011.4 |
| 20260905233404 | 86 | 94 | 0.9 | 6.1 | 0.00 | 2.18 | 0.63 | 80 | 1011.3 |
| 20260905232904 | 86 | 135 | 1.7 | 5.2 | 0.00 | 2.21 | 0.63 | 80 | 1011.3 |
| 20260905232404 | 86 | 130 | 0.9 | 5.2 | 0.00 | 2.24 | 0.63 | 79 | 1011.3 |
| 20260905231404 | 86 | 118 | 1.7 | 6.1 | 0.00 | 2.28 | 0.63 | 78 | 1011.1 |
| 20260905230904 | 87 | 112 | 1.7 | 4.3 | 0.63 | 2.30 | 0.00 | 78 | 1011.1 |
| 20260905230404 | 87 | 141 | 2.6 | 5.2 | 0.00 | 2.32 | 0.00 | 78 | 1011.2 |
| 20260905225904 | 87 | 115 | 1.7 | 5.2 | 0.00 | 2.35 | 0.63 | 77 | 1011.2 |
| 20260905225405 | 87 | 133 | 2.6 | 6.1 | 0.00 | 2.37 | 0.63 | 77 | 1011.2 |
| 20260905224904 | 87 | 155 | 1.7 | 6.1 | 0.00 | 2.41 | 0.63 | 77 | 1011.1 |
| 20260905224404 | 87 | 131 | 2.6 | 5.2 | 0.00 | 2.44 | 0.63 | 77 | 1011.2 |
| 20260905223904 | 87 | 113 | 1.7 | 4.3 | 0.00 | 2.47 | 0.63 | 77 | 1011.2 |
| 20260905223404 | 87 | 118 | 1.7 | 7.0 | 0.00 | 2.50 | 0.63 | 76 | 1011.2 |
| 20260905222904 | 87 | 83 | 1.7 | 7.0 | 0.00 | 2.53 | 0.63 | 76 | 1011.1 |
| 20260905222404 | 88 | 128 | 1.7 | 7.0 | 0.00 | 2.55 | 0.63 | 77 | 1011.0 |
| 20260905221904 | 88 | 142 | 1.7 | 7.0 | 0.00 | 2.59 | 0.63 | 76 | 1011.0 |
| 20260905221404 | 88 | 113 | 0.0 | 4.3 | 0.00 | 2.61 | 0.63 | 76 | 1011.1 |
| 20260905220905 | 88 | 132 | 1.7 | 4.3 | 0.00 | 2.63 | 0.63 | 75 | 1011.0 |
| 20260905220403 | 88 | 153 | 1.7 | 6.1 | 0.00 | 2.66 | 0.63 | 74 | 1011.0 |
| 20260905215903 | 89 | 134 | 2.6 | 6.1 | 0.00 | 2.68 | 0.63 | 73 | 1011.1 |
| 20260905215404 | 89 | 124 | 2.6 | 6.1 | 0.00 | 2.70 | 0.63 | 72 | 1011.1 |
| 20260905214905 | 89 | 143 | 2.6 | 7.0 | 0.00 | 2.73 | 0.63 | 71 | 1011.1 |
| 20260905214404 | 90 | 101 | 2.6 | 7.0 | 0.00 | 2.76 | 0.63 | 70 | 1010.9 |
| 20260905213905 | 90 | 149 | 2.6 | 5.2 | 0.00 | 2.79 | 0.63 | 68 | 1010.9 |
| 20260905213404 | 90 | 164 | 1.7 | 4.3 | 0.00 | 2.81 | 0.63 | 65 | 1011.0 |
| 20260905212904 | 91 | 169 | 1.7 | 4.3 | 0.00 | 2.85 | 0.63 | 67 | 1010.9 |
| 20260905212404 | 91 | 132 | 0.9 | 4.3 | 0.63 | 2.87 | 0.63 | 68 | 1011.0 |
| 20260905211904 | 91 | 148 | 1.7 | 4.3 | 0.00 | 2.90 | 0.63 | 69 | 1011.0 |
| 20260905211404 | 91 | 138 | 2.6 | 6.1 | 0.00 | 2.93 | 0.63 | 67 | 1010.9 |
| 20260905210904 | 90 | 131 | 0.9 | 6.1 | 0.00 | 2.96 | 0.63 | 73 | 1010.9 |
| 20260905205904 | 90 | 145 | 1.7 | 4.3 | 0.00 | 3.02 | 0.63 | 70 | 1011.0 |
| 20260905205404 | 90 | 146 | 0.9 | 4.3 | 0.00 | 3.04 | 0.63 | 71 | 1011.0 |
| 20260905204404 | 90 | 163 | 3.5 | 6.1 | 0.00 | 3.10 | 0.63 | 73 | 1011.2 |
| 20260905202904 | 88 | 166 | 0.0 | 2.6 | 0.00 | 3.17 | 0.63 | 83 | 1011.5 |
| 20260905202404 | 87 | 165 | 0.9 | 4.3 | 0.63 | 3.19 | 0.00 | 84 | 1011.6 |
| 20260905201904 | 86 | 164 | 1.7 | 4.3 | 0.00 | 3.21 | 0.63 | 88 | 1011.6 |
| 20260905201405 | 85 | 158 | 2.6 | 4.3 | 0.00 | 3.23 | 0.63 | 88 | 1011.6 |
| 20260905200904 | 84 | 151 | 0.9 | 2.6 | 0.00 | 3.25 | 0.63 | 91 | 1011.7 |
| 20260905200405 | 83 | 151 | 0.9 | 4.3 | 0.00 | 3.28 | 0.63 | 90 | 1011.7 |
| 20260905195904 | 83 | 151 | 1.7 | 4.3 | 0.00 | 3.30 | 0.63 | 91 | 1011.7 |
| 20260905195405 | 83 | 152 | 0.9 | 2.6 | 0.00 | 3.32 | 0.63 | 93 | 1011.6 |
| 20260905194404 | 83 | 157 | 0.9 | 2.6 | 0.00 | 3.36 | 0.63 | 94 | 1011.5 |
| 20260905193905 | 83 | 159 | 0.9 | 2.6 | 0.00 | 3.37 | 0.63 | 94 | 1011.6 |
| 20260905193403 | 83 | 165 | 0.0 | 1.7 | 0.00 | 3.37 | 0.63 | 95 | 1011.7 |
| 20260905192904 | 82 | 165 | 0.0 | 1.7 | 0.00 | 3.37 | 0.63 | 95 | 1011.8 |
| 20260905192404 | 82 | 165 | 0.9 | 1.7 | 0.00 | 3.37 | 0.63 | 95 | 1012.0 |
| 20260905191404 | 82 | 165 | 0.9 | 1.7 | 0.00 | 3.37 | 0.63 | 95 | 1012.4 |
| 20260905181904 | 81 | 167 | 0.0 | 2.6 | 1.17 | 3.37 | 0.63 | 95 | 1013.2 |
| 20260905181404 | 80 | 167 | 0.0 | 2.6 | 1.31 | 3.37 | 0.63 | 95 | 1013.3 |
| 20260905180904 | 79 | 167 | 0.9 | 2.6 | 0.76 | 3.37 | 0.00 | 94 | 1013.4 |
| 20260905180404 | 79 | 167 | 0.0 | 2.6 | 0.07 | 3.37 | 0.63 | 94 | 1013.3 |
| 20260905175904 | 79 | 167 | 0.0 | 2.6 | 1.03 | 3.37 | 0.63 | 94 | 1013.3 |
| 20260905173904 | 78 | 138 | 2.6 | 5.2 | 0.65 | 3.37 | 0.65 | 92 | 1013.6 |
| 20260905173405 | 78 | 143 | 2.6 | 13.0 | 1.16 | 3.37 | 1.16 | 90 | 1013.8 |
| 20260905172904 | 78 | 126 | 1.7 | 13.0 | 1.06 | 3.37 | 1.06 | 90 | 1014.0 |
| 20260905172404 | 78 | 151 | 11.3 | 13.0 | 0.90 | 3.36 | 0.90 | 89 | 1014.1 |
| 20260905171905 | 79 | 142 | 12.2 | 13.0 | 0.82 | 3.36 | 0.82 | 88 | 1014.1 |
| 20260905171404 | 79 | 132 | 11.3 | 13.0 | 0.68 | 3.36 | 0.68 | 87 | 1014.2 |
| 20260905170404 | 82 | 170 | 5.2 | 10.4 | 0.56 | 3.36 | 0.56 | 85 | 1014.2 |
| 20260905165903 | 84 | 151 | 4.3 | 10.4 | 4.63 | 3.36 | 4.63 | 83 | 1014.3 |
| 20260905164904 | 88 | 166 | 4.3 | 7.8 | 0.33 | 3.32 | 0.33 | 77 | 1014.1 |
| 20260905164404 | 89 | 154 | 1.7 | 10.4 | 0.00 | 3.31 | 0.00 | 73 | 1014.0 |
| 20260905163404 | 90 | 66 | 0.0 | 0.0 | 0.00 | 3.31 | 0.00 | 71 | 1013.9 |
| 20260905162404 | 91 | 66 | 0.0 | 1.7 | 0.00 | 3.31 | 0.00 | 70 | 1013.9 |
| 20260905161904 | 91 | 66 | 0.0 | 1.7 | 0.00 | 3.31 | 0.00 | 69 | 1013.9 |
| 20260905161404 | 91 | 0 | 0.0 | 0.0 | 0.00 | 3.31 | 0.00 | 68 | 1013.8 |
| 20260905160904 | 91 | 0 | 0.0 | 0.0 | 0.00 | 3.31 | 0.00 | 69 | 1013.8 |
| 20260905155904 | 91 | 0 | 0.0 | 0.0 | 0.00 | 3.31 | 0.00 | 70 | 1013.7 |
| 20260905155405 | 91 | 0 | 0.0 | 0.0 | 0.00 | 3.31 | 0.00 | 69 | 1013.7 |
| 20260905154904 | 91 | 0 | 0.0 | 0.0 | 0.00 | 3.31 | 0.00 | 71 | 1013.7 |
| 20260905154404 | 91 | 0 | 0.0 | 0.0 | 0.00 | 3.31 | 0.00 | 71 | 1013.7 |
| 20260905153904 | 91 | 0 | 0.0 | 0.0 | 0.00 | 3.31 | 0.00 | 72 | 1013.7 |
| 20260905153404 | 91 | 0 | 0.0 | 0.0 | 0.00 | 3.31 | 0.00 | 73 | 1013.7 |
| 20260905152904 | 91 | 0 | 0.0 | 0.0 | 0.00 | 3.31 | 0.00 | 72 | 1013.7 |
| 20260905151905 | 89 | 0 | 0.0 | 0.0 | 0.00 | 3.31 | 0.00 | 76 | 1013.7 |
| 20260905151404 | 90 | 0 | 0.0 | 0.0 | 0.00 | 3.31 | 0.00 | 76 | 1013.7 |
| 20260905150905 | 90 | 0 | 0.0 | 0.0 | 0.00 | 3.31 | 0.00 | 76 | 1013.8 |
| 20260905150405 | 90 | 0 | 0.0 | 0.0 | 0.00 | 3.31 | 0.00 | 75 | 1013.7 |
| 20260905145904 | 90 | 0 | 0.0 | 0.0 | 0.00 | 3.31 | 0.00 | 76 | 1013.7 |
| 20260905145403 | 90 | 0 | 0.0 | 0.0 | 0.00 | 3.31 | 0.00 | 76 | 1013.7 |
| 20260905144904 | 90 | 0 | 0.0 | 0.0 | 0.00 | 3.31 | 0.00 | 76 | 1013.7 |
| 20260905144404 | 89 | 0 | 0.0 | 0.0 | 0.00 | 3.31 | 0.00 | 77 | 1013.7 |
| 20260905143904 | 89 | 0 | 0.0 | 0.0 | 0.00 | 3.31 | 0.00 | 80 | 1013.8 |
| 20260905143404 | 88 | 0 | 0.0 | 0.0 | 0.00 | 3.31 | 0.00 | 81 | 1013.8 |
| 20260905142904 | 87 | 0 | 0.0 | 0.0 | 0.00 | 3.31 | 0.00 | 81 | 1013.7 |
| 20260905142404 | 87 | 0 | 0.0 | 0.0 | 0.00 | 3.31 | 0.00 | 81 | 1013.7 |
| 20260905141904 | 86 | 0 | 0.0 | 0.0 | 0.00 | 3.31 | 0.00 | 84 | 1013.7 |
| 20260905141404 | 85 | 0 | 0.0 | 0.0 | 0.00 | 3.31 | 0.00 | 87 | 1013.7 |
| 20260905140905 | 84 | 0 | 0.0 | 0.0 | 0.00 | 3.31 | 0.00 | 89 | 1013.6 |
| 20260905140404 | 83 | 0 | 0.0 | 0.0 | 0.00 | 3.31 | 0.00 | 92 | 1013.6 |
| 20260905135904 | 83 | 0 | 0.0 | 0.0 | 0.00 | 3.31 | 0.00 | 94 | 1013.5 |
| 20260905135404 | 82 | 0 | 0.0 | 0.0 | 0.00 | 3.31 | 0.00 | 95 | 1013.5 |
| 20260905134904 | 81 | 0 | 0.0 | 0.0 | 0.00 | 3.31 | 0.00 | 95 | 1013.5 |
| 20260905133904 | 80 | 0 | 0.0 | 0.0 | 0.00 | 3.31 | 0.00 | 95 | 1013.4 |
| 20260905133404 | 80 | 0 | 0.0 | 0.0 | 0.00 | 3.31 | 0.00 | 95 | 1013.5 |
| 20260905132905 | 79 | 0 | 0.0 | 0.0 | 0.00 | 3.31 | 0.00 | 95 | 1013.6 |
| 20260905132405 | 79 | 0 | 0.0 | 0.0 | 0.00 | 3.31 | 0.00 | 95 | 1013.6 |
| 20260905131904 | 79 | 0 | 0.0 | 0.0 | 0.00 | 3.31 | 0.00 | 95 | 1013.4 |
| 20260905130904 | 78 | 0 | 0.0 | 0.0 | 0.00 | 3.31 | 0.00 | 95 | 1013.3 |
| 20260905130404 | 78 | 0 | 0.0 | 0.0 | 0.00 | 3.31 | 0.00 | 94 | 1013.3 |
| 20260905125904 | 78 | 0 | 0.0 | 0.0 | 0.00 | 3.31 | 0.00 | 94 | 1013.3 |
| 20260905125405 | 77 | 0 | 0.0 | 0.0 | 0.00 | 3.31 | 0.00 | 94 | 1013.2 |
| 20260905124904 | 77 | 0 | 0.0 | 0.0 | 0.00 | 3.31 | 0.00 | 94 | 1013.1 |
| 20260905123905 | 77 | 0 | 0.0 | 0.0 | 0.00 | 3.31 | 0.00 | 94 | 1013.0 |
| 20260905123404 | 77 | 0 | 0.0 | 0.0 | 0.00 | 3.31 | 0.00 | 94 | 1013.0 |
| 20260905122405 | 77 | 0 | 0.0 | 0.0 | 0.00 | 3.31 | 0.00 | 93 | 1012.9 |
| 20260905121904 | 77 | 0 | 0.0 | 0.0 | 0.00 | 3.31 | 0.00 | 93 | 1012.9 |
| 20260905120903 | 77 | 0 | 0.0 | 0.0 | 0.00 | 3.31 | 0.00 | 93 | 1012.7 |
| 20260905120404 | 77 | 0 | 0.0 | 0.0 | 0.00 | 3.31 | 0.00 | 93 | 1012.6 |
| 20260905115904 | 77 | 0 | 0.0 | 0.0 | 0.00 | 3.31 | 0.00 | 93 | 1012.5 |
| 20260905115404 | 77 | 0 | 0.0 | 0.0 | 0.00 | 3.31 | 0.00 | 93 | 1012.5 |
| 20260905114904 | 77 | 0 | 0.0 | 0.0 | 0.00 | 3.31 | 0.00 | 93 | 1012.4 |
| 20260905114404 | 77 | 0 | 0.0 | 0.0 | 0.00 | 3.31 | 0.00 | 93 | 1012.4 |
| 20260905113905 | 77 | 0 | 0.0 | 0.0 | 0.00 | 3.31 | 0.00 | 93 | 1012.4 |
| 20260905113403 | 77 | 0 | 0.0 | 0.0 | 0.00 | 3.31 | 0.00 | 93 | 1012.3 |
| 20260905112904 | 77 | 0 | 0.0 | 0.0 | 0.00 | 3.31 | 0.00 | 93 | 1012.2 |
| 20260905112405 | 77 | 0 | 0.0 | 0.0 | 0.00 | 3.31 | 0.00 | 93 | 1012.2 |
| 20260905110904 | 77 | 0 | 0.0 | 0.0 | 0.00 | 3.31 | 0.00 | 93 | 1012.1 |
| 20260905110405 | 77 | 0 | 0.0 | 0.0 | 0.00 | 3.31 | 0.00 | 93 | 1012.0 |
| 20260905105903 | 78 | 0 | 0.0 | 0.0 | 0.00 | 3.31 | 0.00 | 93 | 1012.0 |
| 20260905105404 | 77 | 0 | 0.0 | 0.0 | 0.00 | 3.31 | 0.00 | 93 | 1012.0 |
| 20260905104905 | 78 | 0 | 0.0 | 0.0 | 0.00 | 3.31 | 0.00 | 93 | 1012.0 |
| 20260905104404 | 78 | 0 | 0.0 | 0.0 | 0.00 | 3.31 | 0.00 | 93 | 1012.0 |
| 20260905103904 | 78 | 0 | 0.0 | 0.0 | 0.00 | 3.31 | 0.00 | 93 | 1012.0 |
| 20260905103405 | 78 | 0 | 0.0 | 0.0 | 0.00 | 3.31 | 0.00 | 93 | 1011.9 |
| 20260905102904 | 78 | 0 | 0.0 | 0.0 | 0.00 | 3.31 | 0.00 | 93 | 1011.9 |
| 20260905102403 | 78 | 0 | 0.0 | 0.0 | 0.00 | 3.31 | 0.00 | 93 | 1011.9 |
| 20260905101904 | 78 | 0 | 0.0 | 0.0 | 0.00 | 3.31 | 0.00 | 92 | 1011.9 |
| 20260905101404 | 78 | 0 | 0.0 | 0.0 | 0.00 | 3.31 | 0.00 | 92 | 1011.9 |
| 20260905100904 | 78 | 0 | 0.0 | 0.0 | 0.00 | 3.31 | 0.00 | 92 | 1012.0 |
| 20260905100403 | 78 | 0 | 0.0 | 0.0 | 0.00 | 3.31 | 0.00 | 92 | 1012.1 |
| 20260905095904 | 78 | 0 | 0.0 | 0.0 | 0.00 | 3.31 | 0.00 | 92 | 1012.0 |
| 20260905094904 | 78 | 0 | 0.0 | 0.0 | 0.00 | 3.31 | 0.00 | 92 | 1012.0 |
| 20260905094405 | 78 | 0 | 0.0 | 0.0 | 0.00 | 3.31 | 0.00 | 92 | 1012.0 |
| 20260905093904 | 78 | 0 | 0.0 | 0.0 | 0.00 | 3.31 | 0.00 | 92 | 1012.0 |
| 20260905093404 | 78 | 0 | 0.0 | 0.0 | 0.00 | 3.31 | 0.00 | 92 | 1011.9 |
| 20260905092405 | 78 | 0 | 0.0 | 0.0 | 0.00 | 3.31 | 0.00 | 92 | 1011.9 |
| 20260905091904 | 78 | 0 | 0.0 | 0.0 | 0.00 | 3.31 | 0.00 | 92 | 1011.9 |
| 20260905091404 | 78 | 0 | 0.0 | 0.0 | 0.00 | 3.31 | 0.00 | 92 | 1011.9 |
| 20260905090404 | 78 | 0 | 0.0 | 0.0 | 0.00 | 3.31 | 0.00 | 92 | 1011.8 |
| 20260905085904 | 78 | 0 | 0.0 | 0.0 | 0.00 | 3.31 | 0.00 | 92 | 1011.9 |
| 20260905085404 | 78 | 0 | 0.0 | 0.0 | 0.00 | 3.31 | 0.00 | 92 | 1011.8 |
| 20260905084405 | 79 | 0 | 0.0 | 0.0 | 0.00 | 3.31 | 0.00 | 92 | 1011.8 |
| 20260905083904 | 79 | 0 | 0.0 | 0.0 | 0.00 | 3.31 | 0.00 | 92 | 1011.8 |
| 20260905083403 | 79 | 0 | 0.0 | 0.0 | 0.00 | 3.31 | 0.00 | 91 | 1011.7 |
| 20260905082904 | 79 | 0 | 0.0 | 0.0 | 0.00 | 3.31 | 0.00 | 91 | 1011.6 |
| 20260905082405 | 79 | 0 | 0.0 | 0.0 | 0.00 | 3.31 | 0.00 | 91 | 1011.6 |
| 20260905081905 | 79 | 0 | 0.0 | 0.0 | 0.00 | 3.31 | 0.00 | 91 | 1011.7 |
| 20260905081404 | 79 | 0 | 0.0 | 0.0 | 0.00 | 3.31 | 0.00 | 91 | 1011.7 |
| 20260905080404 | 79 | 0 | 0.0 | 0.0 | 0.00 | 3.31 | 0.00 | 91 | 1011.7 |
| 20260905075404 | 79 | 0 | 0.0 | 0.0 | 0.00 | 3.31 | 0.00 | 91 | 1011.8 |
| 20260905074905 | 79 | 0 | 0.0 | 0.0 | 0.00 | 3.31 | 0.00 | 91 | 1011.8 |
| 20260905074404 | 79 | 0 | 0.0 | 0.0 | 0.00 | 3.31 | 0.00 | 91 | 1011.8 |
| 20260905073904 | 79 | 0 | 0.0 | 0.0 | 0.00 | 3.31 | 0.00 | 91 | 1011.8 |
| 20260905073404 | 79 | 0 | 0.0 | 0.0 | 0.00 | 3.31 | 0.00 | 91 | 1011.8 |
| 20260905072404 | 79 | 0 | 0.0 | 0.0 | 0.00 | 3.31 | 0.00 | 91 | 1012.0 |
| 20260905071904 | 80 | 0 | 0.0 | 0.0 | 0.00 | 3.31 | 0.00 | 90 | 1012.1 |
| 20260905070904 | 80 | 0 | 0.0 | 0.0 | 0.00 | 3.31 | 0.00 | 90 | 1012.0 |
| 20260905070404 | 80 | 0 | 0.0 | 0.0 | 0.00 | 3.31 | 0.00 | 90 | 1012.1 |
| 20260905065904 | 80 | 0 | 0.0 | 0.0 | 0.00 | 3.31 | 0.00 | 90 | 1012.2 |
| 20260905065403 | 80 | 0 | 0.0 | 0.0 | 0.00 | 3.31 | 0.00 | 90 | 1012.3 |
| 20260905064904 | 80 | 0 | 0.0 | 0.0 | 0.00 | 3.31 | 0.00 | 90 | 1012.4 |
| 20260905064404 | 80 | 0 | 0.0 | 0.0 | 0.00 | 3.31 | 0.00 | 90 | 1012.3 |
| 20260905063904 | 80 | 0 | 0.0 | 0.0 | 0.00 | 3.31 | 0.00 | 90 | 1012.4 |
| 20260905063405 | 80 | 0 | 0.0 | 0.0 | 0.00 | 3.31 | 0.00 | 90 | 1012.4 |
| 20260905062904 | 80 | 0 | 0.0 | 0.0 | 0.00 | 3.31 | 0.00 | 90 | 1012.4 |
| 20260905062404 | 80 | 0 | 0.0 | 0.0 | 0.00 | 3.31 | 0.00 | 90 | 1012.4 |